• In Germany
  • List of Countries
  • For 7 days
  • Water Temperature
  • Satellite Maps
  • Weather Map
  • Weather Widgets
  • user-avatar
    Login

    Hourly Weather Munich

    Today, 22 May, Tuesday

    Time Temperature Precipitation Wind Pressure Humidity
    00:00 +12°C° 0 mm 1 mps 713 mmHg 93%
    01:00 +12°C° 0 mm 1 mps 713 mmHg 94%
    02:00 +11°C° 0 mm 1 mps 713 mmHg 94%
    03:00 +11°C° 0 mm 1 mps 713 mmHg 94%
    04:00 +11°C° 0 mm 1 mps 713 mmHg 93%
    05:00 +12°C° 0 mm 1 mps 713 mmHg 90%
    06:00 +13°C° 0 mm 1 mps 713 mmHg 87%
    07:00 +15°C° 0 mm 1 mps 713 mmHg 84%
    08:00 +18°C° 0 mm 1 mps 713 mmHg 77%
    09:00 +20°C° 0 mm 1 mps 714 mmHg 70%
    10:00 +22°C° 0 mm 1 mps 714 mmHg 62%
    11:00 +23°C° 0.1 mm 1 mps 714 mmHg 60%
    12:00 +23°C° 0.1 mm 1 mps 714 mmHg 59%
    13:00 +24°C° 0.1 mm 2 mps 713 mmHg 57%
    14:00 +24°C° 0.3 mm 2 mps 713 mmHg 60%
    15:00 +24°C° 0.3 mm 2 mps 713 mmHg 63%
    16:00 +23°C° 0.3 mm 2 mps 713 mmHg 67%
    17:00 +22°C° 0.8 mm 1 mps 713 mmHg 72%
    18:00 +21°C° 0.8 mm 1 mps 713 mmHg 77%
    19:00 +19°C° 0.8 mm 1 mps 713 mmHg 83%
    20:00 +18°C° 0.4 mm 1 mps 713 mmHg 85%
    21:00 +18°C° 0.4 mm 1 mps 714 mmHg 86%
    22:00 +16°C° 0.4 mm 1 mps 714 mmHg 88%
    23:00 +15°C° 0.3 mm 1 mps 714 mmHg 90%

    Tomorrow, 23 May, Wednesday

    Time Temperature Precipitation Wind Pressure Humidity
    00:00 +15°C° 0.3 mm 1 mps 715 mmHg 91%
    01:00 +15°C° 0.3 mm 1 mps 715 mmHg 92%
    02:00 +14°C° 0.4 mm 1 mps 715 mmHg 93%
    03:00 +14°C° 0.4 mm 1 mps 715 mmHg 93%
    04:00 +14°C° 0.4 mm 1 mps 715 mmHg 94%
    05:00 +14°C° 0.4 mm 1 mps 716 mmHg 92%
    06:00 +15°C° 0.4 mm 1 mps 716 mmHg 91%
    07:00 +16°C° 0.4 mm 1 mps 716 mmHg 90%
    08:00 +18°C° 0.3 mm 1 mps 716 mmHg 85%
    09:00 +20°C° 0.3 mm 1 mps 717 mmHg 80%
    10:00 +21°C° 0.3 mm 1 mps 717 mmHg 75%
    11:00 +22°C° 0.9 mm 1 mps 717 mmHg 71%
    12:00 +23°C° 0.9 mm 1 mps 717 mmHg 66%
    13:00 +24°C° 0.9 mm 1 mps 717 mmHg 62%
    14:00 +24°C° 0.5 mm 1 mps 717 mmHg 62%
    15:00 +24°C° 0.5 mm 1 mps 717 mmHg 63%
    16:00 +24°C° 0.5 mm 2 mps 717 mmHg 64%
    17:00 +23°C° 0.5 mm 1 mps 717 mmHg 70%
    18:00 +22°C° 0.5 mm 1 mps 717 mmHg 77%
    19:00 +20°C° 0.5 mm 1 mps 717 mmHg 84%
    20:00 +19°C° 0.3 mm 1 mps 717 mmHg 87%
    21:00 +18°C° 0.3 mm 1 mps 717 mmHg 90%
    22:00 +16°C° 0.3 mm 1 mps 717 mmHg 93%
    23:00 +15°C° 0.3 mm 1 mps 717 mmHg 94%

    Day after tomorrow, 24 May, Thursday

    Time Temperature Precipitation Wind Pressure Humidity
    00:00 +15°C° 0.3 mm 1 mps 717 mmHg 94%
    01:00 +14°C° 0.3 mm 1 mps 717 mmHg 95%
    02:00 +14°C° 0.4 mm 1 mps 717 mmHg 95%
    03:00 +14°C° 0.4 mm 1 mps 717 mmHg 96%
    04:00 +13°C° 0.4 mm 1 mps 717 mmHg 96%
    05:00 +14°C° 0.2 mm 1 mps 718 mmHg 94%
    06:00 +15°C° 0.2 mm 1 mps 718 mmHg 93%
    07:00 +16°C° 0.2 mm 1 mps 718 mmHg 91%
    08:00 +18°C° 0.2 mm 1 mps 718 mmHg 88%
    09:00 +19°C° 0.2 mm 1 mps 718 mmHg 86%
    10:00 +20°C° 0.2 mm 1 mps 718 mmHg 83%
    11:00 +20°C° 0.2 mm 2 mps 718 mmHg 80%
    12:00 +21°C° 0.2 mm 2 mps 718 mmHg 76%
    13:00 +23°C° 0.2 mm 2 mps 718 mmHg 72%
    14:00 +23°C° 0.5 mm 2 mps 717 mmHg 73%
    15:00 +23°C° 0.5 mm 2 mps 717 mmHg 74%
    16:00 +23°C° 0.5 mm 2 mps 717 mmHg 75%
    17:00 +21°C° 0.7 mm 2 mps 717 mmHg 79%
    18:00 +22°C° 0.7 mm 1 mps 717 mmHg 84%
    19:00 +21°C° 0.7 mm 1 mps 717 mmHg 88%
    20:00 +20°C° 0.6 mm 1 mps 718 mmHg 90%
    21:00 +19°C° 0.6 mm 1 mps 718 mmHg 91%
    22:00 +18°C° 0.6 mm 1 mps 718 mmHg 93%
    23:00 +16°C° 1.2 mm 1 mps 718 mmHg 94%

    25 May, Friday

    Time Temperature Precipitation Wind Pressure Humidity
    00:00 +16°C° 1.2 mm 1 mps 718 mmHg 95%
    01:00 +15°C° 1.2 mm 1 mps 718 mmHg 95%
    02:00 +15°C° 0 mm 1 mps 718 mmHg 95%
    03:00 +14°C° 0 mm 1 mps 718 mmHg 95%
    04:00 +14°C° 0 mm 1 mps 718 mmHg 95%
    05:00 +15°C° 0 mm 1 mps 718 mmHg 93%
    06:00 +16°C° 0 mm 1 mps 718 mmHg 90%
    07:00 +18°C° 0 mm 1 mps 718 mmHg 88%
    08:00 +20°C° 0 mm 1 mps 719 mmHg 80%
    09:00 +22°C° 0 mm 1 mps 719 mmHg 72%
    10:00 +24°C° 0 mm 1 mps 719 mmHg 64%
    11:00 +25°C° 0 mm 1 mps 719 mmHg 61%
    12:00 +25°C° 0 mm 1 mps 719 mmHg 58%
    13:00 +26°C° 0 mm 1 mps 719 mmHg 55%
    14:00 +26°C° 0 mm 1 mps 719 mmHg 55%
    15:00 +26°C° 0 mm 1 mps 719 mmHg 54%
    16:00 +26°C° 0 mm 1 mps 719 mmHg 54%
    17:00 +25°C° 0.1 mm 1 mps 719 mmHg 62%
    18:00 +24°C° 0.1 mm 1 mps 719 mmHg 69%
    19:00 +22°C° 0.1 mm 1 mps 719 mmHg 76%
    20:00 +21°C° 0 mm 1 mps 719 mmHg 80%
    21:00 +20°C° 0 mm 1 mps 719 mmHg 84%
    22:00 +18°C° 0 mm 1 mps 719 mmHg 87%
    23:00 +18°C° 0 mm 1 mps 719 mmHg 88%

    26 May, Saturday

    Time Temperature Precipitation Wind Pressure Humidity
    00:00 +16°C° 0 mm 1 mps 719 mmHg 89%
    01:00 +16°C° 0 mm 1 mps 719 mmHg 90%
    02:00 +15°C° 0 mm 1 mps 719 mmHg 91%
    03:00 +15°C° 0 mm 1 mps 719 mmHg 91%
    04:00 +15°C° 0 mm 1 mps 719 mmHg 91%
    05:00 +16°C° 0 mm 1 mps 719 mmHg 87%
    06:00 +19°C° 0 mm 1 mps 720 mmHg 82%
    07:00 +18°C° 0 mm 0 mps 720 mmHg 78%
    08:00 +22°C° 0 mm 1 mps 720 mmHg 72%
    09:00 +24°C° 0 mm 1 mps 720 mmHg 65%
    10:00 +26°C° 0 mm 1 mps 720 mmHg 59%
    11:00 +27°C° 0 mm 1 mps 720 mmHg 55%
    12:00 +28°C° 0 mm 1 mps 720 mmHg 51%
    13:00 +29°C° 0 mm 1 mps 720 mmHg 47%
    14:00 +28°C° 0 mm 1 mps 720 mmHg 48%
    15:00 +28°C° 0 mm 1 mps 720 mmHg 49%
    16:00 +28°C° 0 mm 2 mps 720 mmHg 49%
    17:00 +27°C° 0 mm 2 mps 720 mmHg 57%
    18:00 +25°C° 0 mm 1 mps 720 mmHg 64%
    19:00 +24°C° 0 mm 1 mps 720 mmHg 72%
    20:00 +22°C° 0 mm 1 mps 720 mmHg 76%
    21:00 +21°C° 0 mm 1 mps 720 mmHg 80%
    22:00 +19°C° 0 mm 1 mps 721 mmHg 85%
    23:00 +19°C° 0 mm 1 mps 720 mmHg 86%

    27 May, Sunday

    Time Temperature Precipitation Wind Pressure Humidity
    00:00 +18°C° 0 mm 1 mps 720 mmHg 87%
    01:00 +18°C° 0 mm 1 mps 720 mmHg 89%
    02:00 +16°C° 0 mm 1 mps 720 mmHg 88%
    03:00 +16°C° 0 mm 1 mps 720 mmHg 88%
    04:00 +15°C° 0 mm 1 mps 720 mmHg 88%
    05:00 +18°C° 0 mm 1 mps 720 mmHg 84%
    06:00 +19°C° 0 mm 1 mps 720 mmHg 79%
    07:00 +21°C° 0 mm 1 mps 720 mmHg 75%
    08:00 +23°C° 0 mm 1 mps 720 mmHg 69%
    09:00 +25°C° 0 mm 2 mps 721 mmHg 64%
    10:00 +26°C° 0 mm 2 mps 721 mmHg 59%
    11:00 +27°C° 0 mm 2 mps 721 mmHg 56%
    12:00 +28°C° 0 mm 2 mps 720 mmHg 54%
    13:00 +29°C° 0 mm 2 mps 720 mmHg 51%
    14:00 +29°C° 0 mm 2 mps 720 mmHg 52%
    15:00 +29°C° 0 mm 2 mps 720 mmHg 53%
    16:00 +28°C° 0 mm 2 mps 719 mmHg 54%
    17:00 +27°C° 0.1 mm 2 mps 719 mmHg 61%
    18:00 +26°C° 0.1 mm 2 mps 719 mmHg 68%
    19:00 +24°C° 0.1 mm 1 mps 719 mmHg 75%
    20:00 +23°C° 0 mm 1 mps 719 mmHg 79%
    21:00 +21°C° 0 mm 1 mps 719 mmHg 83%
    22:00 +20°C° 0 mm 1 mps 720 mmHg 87%
    23:00 +19°C° 0 mm 1 mps 719 mmHg 89%
    Show more